Regional Weather Roundup
Issued by NWS Mt. Holly, NJ

Home | Current Version | Previous Version | Text Only | Print | Product List | Glossary On
Versions: 1 2 3 4 5 6 7 8 9 10 11 12 13 14 15 16 17 18 19 20 21 22 23 24 25 26 27 28 29 30 31 32 33 34 35 36 37 38 39 40 41 42 43 44 45 46 47 48 49 50
000
ASUS41 KPHI 222013
RWRPHI

REGIONAL WEATHER ROUNDUP
NATIONAL WEATHER SERVICE MOUNT HOLLY NJ
400 PM EDT SUN APR 22 2018

NOTE:  "FAIR" INDICATES FEW OR NO CLOUDS BELOW 12,000 FEET WITH NO
SIGNIFICANT WEATHER AND/OR OBSTRUCTIONS TO VISIBILITY.

 * = STATION DOES NOT REPORT PRECIPITATION (E.G. RAIN, SNOW, ETC.)
        OR FOG.

NJZ015>026-222100-
SOUTHERN NEW JERSEY

CITY           SKY/WX    TMP DP  RH WIND       PRES   REMARKS
POMONA         FAIR      60  21  22 SE13G21   30.37F
WILDWOOD*      FAIR      57  30  35 VRB7      30.39F
MILLVILLE      FAIR      62  26  25 S7        30.36F
WRIGHTSTOWN    FAIR      65  22  19 W6        30.32F
MOUNT HOLLY    FAIR      64  25  22 VRB5      30.35F
TRENTON        FAIR      64  19  17 W8G22     30.33F

$$
NJZ001>014-222100-
NORTHERN NEW JERSEY

CITY           SKY/WX    TMP DP  RH WIND       PRES   REMARKS
SUSSEX         FAIR      66  20  17 N7        30.32F
ANDOVER*         N/A     65  16  15 N6        30.31F
MORRISTOWN     MOSUNNY   64  12  13 NW9G15    30.32F
NEWARK         FAIR      68  38  33 NW13      30.32F
TETERBORO      FAIR      66  19  16 VRB7      30.31F
CALDWELL       FAIR      65  12  12 VRB3      30.32F
SOMERVILLE     FAIR      66  18  15 VRB3      30.30F
ALLAIRE*       FAIR      57  23  26 S14       30.37F
TOMS RIVER*    FAIR      60  29  30 SE15      30.36F

$$
PAZ043-044-047-054-055-060>062-066>071-222100-
EASTERN PENNSYLVANIA

CITY           SKY/WX    TMP DP  RH WIND       PRES   REMARKS
PHILADELPHIA   FAIR      63  23  21 S5        30.35F
NORTH PHILA    FAIR      67  26  21 W7        30.36F
BLUE BELL*     FAIR      63  28  27 SE3       30.36F
DOYLESTOWN     FAIR      64  21  19 MISG      30.33F
QUAKERTOWN*    SUNNY     64  25  22 S6        30.34F
PERKASIE*      FAIR      64  19  17 NW5       30.34F
POTTSTOWN      FAIR      64  23  21 N9        30.35F
LANCASTER      FAIR      63  29  27 CALM      30.35F
COATESVILLE    FAIR      63  27  25 W8G15     30.36F
READING        FAIR      65  23  20 VRB5      30.33F
ALLENTOWN      FAIR      68  20  16 MISG      30.32F
MOUNT POCONO   FAIR      57  16  20 N9        30.33F
HAZLETON       FAIR      64  18  16 N5        30.36F
LEHIGHTON      FAIR      64  12  13 SW3       30.33F
WILKES BARRE   FAIR      63  17  17 VRB6      30.32F

$$
DEZALL-MDZ008-012-015-019-020-222100-
DELAWARE AND EASTERN MARYLAND

CITY           SKY/WX    TMP DP  RH WIND       PRES   REMARKS
WILMINGTON     FAIR      63  28  26 SE9       30.36F
DOVER          MOSUNNY   57  29  34 E8        30.37F
GEORGETOWN     FAIR      60  30  32 SE13      30.39S
EASTON         MOSUNNY   68  36  30 SE10      30.39F
ABERDEEN       FAIR      65  29  26 SE8       30.36F
PATUXENT       CLOUDY    61  45  55 SE13      30.36
OCEAN CITY     FAIR      51  36  56 SE8       30.41F
WALLOPS ISLAND FAIR      56  44  64 SE10      30.40F
CAMBRIDGE      SUNNY     64  32  29 S8G14     30.36F
SALISBURY      FAIR      57  34  41 SE9       30.39S

$$
PAZ001-021-NYZ056-072-MDZ011-DCZ001-222100-
OTHER NEARBY LOCATIONS

CITY           SKY/WX    TMP DP  RH WIND       PRES   REMARKS
HARRISBURG     FAIR      64  27  24 SE3       30.34F
STATE COLLEGE  SUNNY     63  23  22 CALM      30.32F
WILLIAMSPORT   FAIR      66  17  15 SE9       30.31F
BINGHAMTON     FAIR      57  18  21 N14G23    30.34F
NEW YORK CITY  FAIR      65  12  12 SW6       30.35F
BALTIMORE      PTSUNNY   64  35  34 S8        30.34F
WASHINGTON DC  PTSUNNY   66  41  40 E14G20    30.33F

$$



USA.gov is the U.S. government's official web portal to all federal, state and local government web resources and services.